Temp
28 28 27 27 27 26 27 27 28 28 28 28 28 27 26 27 27 26 25 25 25 25 25 24 24 23 22 21 19 20 19 19 16 16 18 17 17 17 16 16 15 15 15
29 29 28 28 27 27 26 27 27 27 27 27 27 26 26 27 26 26 26 25 25 25 25 24 24 24 23 21 19 19 18 18 17 18 17 17 17 17 16 16 16 15 16
30 29 29 28 27 27 27 27 27 27 27 27 27 27 27 27 26 26 25 24 24 24 24 24 23 22 22 21 19 19 18 17 18 18 17 17 17 16 16 16 16 16 15
31 30 30 29 28 28 28 27 27 27 27 27 27 27 27 27 26 25 25 24 24 24 24 23 22 21 20 20 19 18 17 17 18 18 18 17 17 16 17 16 16 16 15
32 30 29 29 28 28 27 27 27 27 27 27 27 27 27 26 24 25 24 23 24 24 24 22 21 21 20 20 19 18 18 18 18 19 19 18 17 17 17 17 17 17 17
33 31 30 29 29 28 28 27 27 27 27 27 27 27 27 25 24 24 23 23 24 23 22 22 21 20 19 19 19 19 19 18 19 19 19 18 18 18 19 18 17 17 16
31 31 30 29 29 28 28 28 27 27 27 27 27 27 25 23 23 22 22 22 23 23 21 21 20 19 18 18 18 19 18 18 19 20 19 19 19 19 19 18 18 18 18
31 31 30 30 29 29 28 28 28 27 27 27 26 24 23 23 21 22 22 22 23 22 21 21 20 19 18 18 18 18 18 19 20 21 21 20 19 19 19 19 18 18 18
30 30 30 29 29 28 28 27 27 27 27 25 24 23 22 21 21 22 22 22 21 22 21 20 20 19 18 18 19 18 18 18 19 20 20 20 20 19 19 18 18 18 18
29 30 30 29 29 28 27 27 27 27 25 24 22 22 21 21 21 22 23 22 22 21 21 20 19 19 18 19 19 18 18 18 18 19 19 19 19 19 19 19 19 19 19
26 26 29 29 28 28 27 27 26 24 23 22 21 21 20 20 21 21 22 23 23 21 20 20 19 19 19 19 19 19 18 18 18 19 19 18 18 18 18 18 19 19 19
24 24 27 28 28 27 27 25 23 23 22 20 20 20 19 18 19 20 21 22 22 21 20 19 19 19 19 18 19 19 19 18 18 19 19 19 19 18 18 19 19 19 18
23 24 25 26 26 27 25 23 23 21 21 20 20 21 20 18 18 19 19 20 20 19 19 19 18 19 19 19 19 19 19 19 20 20 20 20 20 20 19 19 19 18 18
22 23 23 22 24 21 20 21 21 21 21 21 21 23 22 19 19 19 18 18 18 18 18 18 18 18 18 18 19 19 20 19 21 22 22 22 21 20 20 19 19 19 18
22 22 21 21 20 19 19 18 15 21 22 22 23 24 23 21 19 18 19 19 18 17 17 17 17 18 18 18 19 19 20 21 21 22 22 22 21 21 20 20 19 19 18
21 20 21 19 20 19 16 16 16 10 19 22 23 25 23 22 20 17 17 17 17 17 17 17 16 16 17 17 17 18 19 20 21 22 21 22 22 22 21 20 20 19 19
20 19 20 18 17 17 15 18 14 16 16 19 19 19 22 20 19 16 16 17 17 18 17 17 16 15 14 14 15 15 16 17 18 18 19 19 19 20 21 21 20 20 19
19 19 18 18 16 16 15 15 18 17 13 12 14 15 15 17 15 15 16 16 17 17 17 16 15 15 14 14 13 13 14 15 16 16 17 17 17 18 19 20 19 19 19
19 17 17 18 16 15 16 15 14 14 14 12 12 12 13 14 14 15 16 17 20 20 18 16 15 15 14 13 13 13 12 13 13 14 15 15 15 15 16 18 19 19 19
17 17 16 16 15 15 14 15 15 15 14 13 13 13 13 14 14 15 17 19 20 20 19 16 14 13 13 13 13 13 13 12 11 12 12 12 13 14 14 14 16 16 18
16 15 16 15 14 14 15 15 16 16 16 16 16 14 14 15 17 17 17 18 18 17 16 16 13 13 13 12 12 13 12 12 11 11 11 11 11 12 12 12 13 14 15
15 15 15 15 14 14 15 16 16 16 16 15 14 13 14 16 15 14 15 14 13 12 12 12 13 12 12 11 11 12 10 10 10 10 11 11 11 11 11 11 11 12 13
14 14 14 14 14 14 14 15 16 15 14 14 14 13 15 14 14 12 12 12 11 11 11 11 10 10 10 10 9 10 8 8 7 8 8 9 10 11 11 11 11 11 11
12 11 11 11 12 13 13 13 14 14 13 13 13 13 12 12 11 11 11 11 11 11 11 10 9 9 8 8 8 7 7 7 7 7 7 7 8 9 10 10 11 12 12
11 11 10 10 10 10 10 10 10 10 10 10 10 10 11 11 10 10 10 10 10 9 9 8 8 8 8 8 8 7 7 7 7 6 5 6 6 6 7 9 10 11 12
11 10 10 10 10 10 9 9 10 10 9 9 10 10 11 11 11 10 10 9 9 9 9 8 7 8 8 7 7 7 7 6 5 6 6 7 6 6 6 8 9 9 11
Height
765 769 772 775 777 780 783 785 786 788 788 790 791 793 793 793 793 793 792 789 787 785 784 781 777 775 774 772 774 776 778 781 782 791 792 796 798 801 802 803 804 805 808
758 765 767 770 774 776 778 780 783 785 786 787 789 790 790 790 790 790 789 787 785 784 782 779 777 775 773 772 774 777 779 782 785 790 791 795 798 801 804 806 808 809 811
749 756 762 766 768 771 773 776 778 780 782 784 785 786 787 788 788 788 786 785 784 782 781 780 777 775 773 773 774 777 780 782 783 788 794 796 799 802 805 809 811 812 813
742 748 755 759 763 766 769 772 773 775 777 779 781 782 784 785 784 783 783 784 782 781 781 780 777 776 774 773 776 779 782 784 789 792 794 797 801 803 806 808 811 813 814
734 741 746 752 758 761 763 766 768 769 772 775 777 778 781 780 781 781 782 782 781 781 781 779 778 777 774 775 776 779 782 784 788 791 795 799 801 803 805 807 811 814 816
730 734 740 746 751 755 757 759 762 765 767 770 772 774 777 775 777 778 779 780 780 781 780 780 778 778 777 777 778 781 783 786 790 791 794 797 800 801 805 807 810 814 816
731 733 735 738 742 747 750 753 756 760 764 766 768 770 770 771 774 776 776 778 779 781 780 780 779 779 779 779 782 785 787 791 792 792 794 795 798 801 804 807 810 812 813
729 731 731 734 736 741 744 747 750 754 758 761 764 766 767 770 772 772 774 776 778 780 781 780 780 780 781 783 786 787 790 790 790 790 791 794 797 801 805 808 809 812 814
726 727 729 731 733 737 740 743 745 747 751 754 757 762 765 770 770 769 771 774 776 777 779 779 780 780 782 784 787 790 791 792 792 792 793 796 799 801 805 808 811 812 814
726 724 725 727 729 732 733 734 735 739 742 747 753 756 761 765 765 766 768 770 772 774 777 778 779 780 782 784 785 788 791 792 794 795 796 798 801 803 806 808 810 811 812
726 722 720 720 722 722 724 729 729 731 738 744 749 755 760 761 762 764 765 765 767 770 773 776 778 780 781 783 784 786 789 792 794 795 798 800 801 803 805 807 810 811 812
726 721 717 715 714 719 722 726 730 731 737 743 748 756 761 763 763 764 765 765 766 767 772 775 776 778 780 784 784 785 788 792 794 795 796 798 801 803 805 807 808 810 811
725 719 714 715 719 718 723 727 731 742 737 747 752 756 762 766 767 767 768 767 766 767 769 774 776 778 780 783 785 785 786 790 792 794 795 796 797 801 804 806 808 809 810
724 718 714 717 720 719 683 701 729 743 741 744 749 754 754 763 768 766 768 767 768 767 769 773 777 778 779 783 783 786 786 788 790 791 791 791 796 800 802 804 807 808 809
722 717 714 718 724 722 704 724 729 742 738 747 743 746 750 754 762 764 765 766 765 767 769 771 777 779 781 783 785 786 786 787 788 789 791 793 795 797 799 802 805 806 808
720 716 713 717 722 725 734 740 745 758 722 732 747 741 741 747 753 759 762 764 765 764 768 770 776 778 780 781 783 784 784 785 788 788 790 792 793 796 798 800 801 804 805
717 715 714 714 717 719 725 735 739 741 715 742 755 762 745 743 748 754 760 761 765 763 766 769 775 778 780 779 783 785 784 785 786 789 790 792 792 793 795 797 798 800 801
712 711 713 712 712 717 722 725 729 736 746 753 758 758 760 746 754 756 753 761 764 763 766 768 774 777 781 779 780 784 785 785 787 787 788 791 792 792 793 795 796 797 799
709 708 708 710 710 713 720 725 731 741 751 758 759 762 755 752 755 757 758 759 760 761 766 768 772 776 782 783 781 781 786 786 787 787 787 789 791 791 793 792 794 794 794
705 704 706 707 709 712 718 720 728 734 737 746 749 752 751 752 755 760 761 759 758 762 766 769 772 777 780 782 783 782 786 788 787 788 788 789 789 790 791 791 791 791 790
700 701 701 703 705 711 717 722 724 730 728 745 748 749 753 755 756 760 759 760 761 764 766 770 772 776 782 780 781 781 784 788 788 789 790 788 789 788 788 788 788 788 788
697 695 696 699 704 712 719 719 722 731 735 742 748 752 755 755 755 759 759 762 765 765 767 770 774 776 782 783 779 779 780 786 787 787 790 789 789 789 789 788 787 786 785
692 690 692 696 702 709 718 724 727 735 743 746 746 754 753 755 757 758 761 766 767 768 770 773 775 776 780 782 780 781 782 785 786 788 790 789 787 788 788 788 786 785 783
691 691 693 698 701 707 713 719 727 734 734 740 748 754 759 756 755 758 763 766 771 771 772 773 774 774 780 781 783 783 784 786 786 785 786 787 787 788 786 786 784 782 781
693 696 697 699 706 711 711 721 723 728 735 737 738 757 760 759 755 759 764 767 770 771 771 772 774 777 780 781 783 783 783 784 784 783 783 784 784 784 784 783 783 780 778
698 700 702 706 710 714 715 724 729 730 734 738 737 749 756 757 756 761 763 765 767 769 772 773 775 778 780 780 781 782 782 782 782 782 781 781 781 780 781 781 779 776 773
Wind_Speed
26 26 26 26 25 24 23 20 17 16 18 16 12 11 9 10 9 10 11 15 13 17 16 15 15 14 14 2 7 9 11 10 4 4 13 14 12 13 10 9 12 10 12
29 27 28 26 26 24 24 22 21 22 19 16 13 11 10 9 9 9 11 13 12 16 15 15 16 14 12 3 9 9 13 10 8 12 16 14 15 11 10 10 10 8 9
33 32 27 28 28 27 26 25 23 21 19 17 15 14 11 9 8 7 8 11 11 12 14 15 15 15 14 4 12 12 14 14 18 16 11 13 14 13 11 7 10 12 8
33 33 29 30 30 29 27 26 25 22 20 18 16 13 10 8 6 7 7 6 7 11 12 12 14 15 9 10 12 15 19 16 15 15 14 15 15 12 11 11 9 12 8
35 32 33 29 28 27 27 25 25 23 21 18 15 14 11 9 5 4 4 3 7 7 9 8 11 13 7 6 12 22 22 20 16 15 11 13 13 15 14 13 12 11 11
26 31 30 30 28 29 28 28 25 22 20 17 16 14 11 8 3 5 2 3 4 9 9 10 9 10 6 6 9 21 18 21 12 12 12 12 15 16 12 15 15 12 3
12 22 28 30 31 31 30 27 26 23 20 18 17 15 11 7 5 4 5 5 4 5 9 7 7 8 9 13 18 16 14 5 3 10 16 17 15 14 12 16 17 11 4
16 15 25 26 28 29 29 29 26 24 21 19 18 15 13 9 9 8 9 6 4 3 5 5 6 7 12 12 13 11 6 5 3 0 11 18 16 14 12 11 12 7 8
15 20 19 24 24 26 27 27 26 24 22 22 21 17 13 10 10 11 9 12 7 5 2 5 6 6 14 11 10 10 7 6 7 7 7 11 12 11 14 10 12 13 8
17 18 22 22 24 26 28 30 29 27 27 24 22 21 15 12 12 11 11 6 11 10 7 4 7 8 11 8 10 10 8 6 6 9 12 14 12 8 14 8 11 7 6
26 29 20 25 28 32 31 28 28 30 27 25 26 21 15 14 13 13 12 12 13 14 9 8 5 7 9 9 7 11 10 10 9 11 10 8 6 11 14 7 6 5 5
26 27 25 24 29 28 31 29 28 28 25 24 23 17 12 12 10 11 11 9 12 11 9 8 6 8 11 8 7 10 9 11 10 10 13 14 13 10 9 9 4 3 1
26 24 24 23 25 27 28 25 22 22 23 19 17 16 15 10 7 7 8 10 14 13 10 8 10 11 11 8 5 11 17 14 12 13 14 17 17 16 11 8 6 6 4
23 23 19 12 9 5 16 23 16 13 17 18 18 18 22 20 11 9 10 14 12 12 12 13 14 11 9 8 9 13 10 7 7 9 8 18 17 14 13 13 7 7 8
22 21 15 11 4 6 17 19 10 17 18 21 22 19 23 21 15 13 10 15 13 13 12 11 9 7 7 7 6 5 5 4 3 2 5 13 17 13 13 10 9 9 9
21 19 13 5 13 16 21 13 13 15 21 20 21 27 24 22 17 17 16 14 15 17 13 11 8 7 4 4 2 3 4 5 5 7 2 6 9 10 12 15 10 10 7
19 16 14 15 25 24 20 24 21 2 18 12 5 6 20 25 21 20 17 15 15 16 14 13 9 6 6 7 4 1 2 1 5 2 2 1 4 5 8 13 11 10 8
19 14 19 14 23 27 25 24 27 15 8 9 13 10 10 16 20 21 20 14 13 9 15 15 12 8 7 9 7 4 2 2 5 4 3 4 3 3 7 11 11 11 12
17 14 16 19 22 23 26 26 27 25 20 16 12 10 10 13 13 13 16 13 10 12 15 14 13 10 8 7 7 7 4 3 1 2 5 7 9 7 7 6 12 14 12
17 14 16 18 24 26 18 18 21 22 23 16 13 10 12 13 11 13 7 4 8 10 11 18 15 10 8 7 8 9 5 4 4 3 2 5 5 6 10 10 6 7 17
18 16 18 21 25 23 23 21 19 16 18 14 13 13 13 9 13 11 10 8 9 11 10 14 15 8 6 8 6 7 3 3 4 5 8 8 8 8 9 10 12 12 11
19 15 20 22 25 23 21 21 24 20 19 17 12 15 12 9 14 14 16 12 10 11 10 8 9 9 6 6 7 5 6 8 5 5 7 6 8 11 12 11 12 13 13
13 17 24 26 29 29 27 26 22 21 22 17 17 17 12 13 12 13 13 10 9 10 9 9 10 10 7 6 7 5 7 5 4 5 7 8 8 10 11 12 14 13 13
19 19 20 22 27 33 30 31 29 26 28 22 12 7 8 12 14 14 12 11 9 10 10 11 12 12 8 8 6 8 6 3 6 3 5 6 9 11 12 15 15 16 18
19 20 22 23 21 17 21 19 24 21 19 22 23 10 8 12 17 14 13 13 11 9 9 11 10 9 6 4 3 1 3 7 7 5 4 8 9 13 15 17 18 18 18
19 20 23 21 23 21 18 16 16 19 18 20 19 14 14 14 15 14 13 11 10 8 8 8 7 6 4 7 3 5 5 5 7 9 10 10 10 10 12 15 18 20 19
Wind_Direction
201 209 209 211 213 218 227 234 232 246 252 260 262 272 277 283 293 301 310 319 328 326 332 338 332 339 350 31 135 154 160 159 156 101 128 132 121 122 123 126 115 119 129
199 212 209 212 211 215 219 225 231 235 241 242 246 252 262 273 283 305 320 328 343 332 344 343 347 354 9 121 142 151 162 171 126 126 133 137 138 134 133 133 142 128 137
190 201 211 210 209 213 217 219 223 226 230 235 240 237 243 262 284 309 319 329 343 342 356 356 11 8 2 111 153 155 158 146 151 137 141 143 142 145 144 143 123 134 137
189 193 204 207 209 212 216 218 219 221 226 231 235 240 237 258 271 273 311 343 338 6 6 9 4 7 13 133 148 149 146 151 149 134 153 151 156 159 157 157 141 151 141
188 192 199 203 208 210 211 214 216 219 226 230 227 230 225 235 251 300 318 13 14 19 17 34 16 15 52 125 150 155 159 157 160 143 152 156 161 175 179 169 154 154 149
192 191 196 199 206 210 211 210 212 217 222 219 218 217 209 202 252 291 141 73 36 36 36 29 30 36 78 109 138 155 163 158 169 156 155 166 179 184 175 161 163 158 144
271 205 199 196 202 209 207 206 207 210 210 209 208 201 174 191 217 165 132 111 103 32 37 33 52 52 94 115 136 152 152 143 135 187 180 182 184 185 177 158 166 189 177
246 256 210 204 202 207 206 204 200 196 196 197 187 170 187 208 189 165 148 135 125 45 50 46 69 93 121 131 134 153 130 90 123 279 185 184 187 176 182 172 174 163 156
268 235 235 213 210 207 204 199 193 187 186 176 166 169 185 187 181 169 168 177 144 113 66 70 115 121 136 143 150 147 128 97 75 76 120 155 168 162 168 151 154 156 159
289 254 234 228 218 211 203 198 192 185 166 159 159 176 187 182 175 175 181 193 153 137 112 105 135 140 150 152 152 159 143 142 121 95 106 136 149 162 160 158 177 213 156
324 319 255 224 220 215 206 198 181 167 159 157 158 169 179 182 176 180 168 160 142 144 135 141 135 144 155 161 159 165 168 158 139 129 134 135 144 163 175 172 196 223 183
322 315 299 240 218 216 209 189 169 161 156 151 148 156 170 178 175 180 182 170 146 133 134 141 149 150 148 154 140 147 161 149 155 172 167 167 171 184 201 219 217 223 324
320 306 292 271 249 228 200 170 157 153 149 147 156 170 163 170 150 145 136 145 140 129 148 153 134 132 132 139 142 148 147 164 191 204 201 191 188 188 193 205 213 205 149
316 307 292 289 257 98 28 136 130 155 156 162 179 185 163 163 166 159 153 126 133 120 121 133 140 135 129 150 142 167 172 218 206 230 220 200 185 171 170 177 199 232 213
311 302 284 261 229 223 123 303 337 190 180 190 187 190 158 147 167 181 169 159 150 143 128 121 139 152 164 149 160 192 256 213 185 77 156 155 160 163 186 192 199 218 243
303 296 275 199 189 155 154 141 174 318 157 179 193 176 161 178 177 163 165 157 149 137 134 124 117 131 137 108 122 88 96 125 127 158 220 162 179 187 195 187 199 206 221
298 286 263 134 157 173 147 170 147 165 26 81 88 153 170 161 160 156 153 146 150 137 127 130 133 130 129 110 104 106 88 147 129 89 242 340 72 153 181 183 183 206 231
293 289 254 188 158 167 158 162 189 180 197 155 176 179 162 145 162 161 143 154 169 179 139 140 134 138 136 126 115 95 97 231 250 249 256 271 261 325 233 215 216 226 234
281 282 263 218 167 172 160 151 159 163 168 162 162 162 137 136 145 155 168 174 191 146 138 133 135 125 129 124 111 99 74 69 59 266 256 265 265 268 298 272 243 230 234
275 275 255 190 158 154 160 150 153 154 147 162 158 150 133 126 140 168 184 156 131 136 124 134 131 128 136 114 104 99 94 75 38 23 317 299 294 285 272 277 283 294 237
266 268 225 173 167 159 160 169 167 151 143 173 138 147 171 192 164 156 133 111 112 105 107 96 114 119 150 134 120 97 98 97 72 37 359 349 331 313 292 287 285 282 286
260 246 190 168 152 155 178 168 146 150 148 140 155 173 164 132 107 98 104 97 92 93 93 114 96 101 95 101 96 100 88 119 82 39 353 347 332 329 320 306 295 286 285
216 174 151 145 143 142 132 140 136 138 140 142 146 158 150 137 126 111 108 111 111 110 109 114 111 100 94 84 78 108 89 70 56 22 343 336 329 315 312 299 298 297 285
147 130 130 135 141 137 130 126 130 123 118 127 112 113 137 142 133 128 129 130 131 124 123 116 115 105 109 94 113 112 108 39 349 352 305 330 321 314 310 306 300 294 289
131 121 117 111 112 102 112 134 134 134 128 131 127 149 158 145 132 134 140 138 134 126 112 103 108 101 85 95 102 73 358 325 327 339 342 315 314 307 301 296 290 288 287
140 137 129 125 127 127 124 136 135 134 141 145 131 159 178 157 141 142 143 139 134 126 119 112 103 106 117 135 67 344 342 3 4 352 343 335 322 314 305 304 301 300 293